Regional Weather Roundup
Issued by NWS

Home | Current Version | Previous Version | Graphics & Text | Print | Product List | Glossary On
Versions: 1 2 3 4 5 6 7 8 9 10 11 12 13 14 15 16 17 18 19 20 21 22 23 24 25 26 27 28 29 30 31 32 33 34 35 36 37 38 39 40 41 42 43 44 45 46 47 48 49 50
000
ASUS43 KLOT 240358
RWRIL

ILLINOIS REGIONAL WEATHER ROUNDUP
NATIONAL WEATHER SERVICE CHICAGO/ROMEOVILLE IL
1100 PM CDT TUE SEP 23 2014

NOTE: "FAIR" INDICATES FEW OR NO CLOUDS BELOW 12,000 FEET WITH NO
SIGNIFICANT WEATHER AND/OR OBSTRUCTIONS TO VISIBILITY.

* THESE STATIONS ARE NOT UNDER NWS QUALITY CONTROL. THEY ALSO MAY NOT
  REPORT WEATHER SUCH AS PRECIPITATION OR FOG.

ILZ001-002-007-009-015-016-024-240500-
NORTHWEST ILLINOIS

CITY           SKY/WX    TMP DP  RH WIND       PRES   REMARKS
MOLINE         MOCLDY    56  50  80 CALM      30.26R
$$

ILZ003-004-008-010-011-017-018-240500-
NORTH CENTRAL ILLINOIS

CITY           SKY/WX    TMP DP  RH WIND       PRES   REMARKS
ROCKFORD       NOT AVBL
$$

ILZ005-006-012>014-019>023-240500-
NORTHEAST ILLINOIS

CITY           SKY/WX    TMP DP  RH WIND       PRES   REMARKS
CHICAGO-OHARE  PTCLDY    59  50  72 SE5       30.30S
CHICAGO-MIDWAY PTCLDY    62  53  72 E7        30.31R
AURORA         PTCLDY    53  48  83 CALM      30.31R
WAUKEGAN       CLEAR     51  49  92 CALM      30.31R
DUPAGE AIRPORT PTCLDY    58  50  75 SE3       30.30R
WHEELING       PTCLDY    59  51  75 SE3       30.32R
NORTHERLY ISL    N/A     61  57  87 SE3         N/A
$$

LMZ740>746-240500-
SOUTHERN LAKE MICHIGAN

STATION/POSITION SKY/WX   TEMP    WIND        PRES    VSBY  WAVE
                          AIR SEA DIR/SP/G                  HT/PER
                          (F)     (DEG/KT/KT) (MB)    (MI)  (FT/S)
SOUTHERN BUOY              62 62  130/  6/  6 1026.7R         0
WAUKEGAN HARBOR            60     190/  4/  4   N/A
BURNHAM HARBOR             61     140/  5       N/A
CALUMET HARBOR             63     110/  5/  7 1025.0R
MICHIGAN CITY 6N           62 64  110/  8/ 10   N/A           1
ST. JOSEPH                 63 65   90/  8/ 10   N/A           1/ 2
$$

ILZ025>027-034>036-040-047-049-050-058-095>099-240500-
WEST-CENTRAL ILLINOIS

CITY           SKY/WX    TMP DP  RH WIND       PRES   REMARKS
$$

ILZ028>032-037-038-041>044-048-051>054-059>061-240500-
CENTRAL ILLINOIS

CITY           SKY/WX    TMP DP  RH WIND       PRES   REMARKS
PEORIA         NOT AVBL
SPRINGFIELD    MOCLDY    57  53  86 CALM      30.28R
TAYLORVILLE    NOT AVBL
$$

ILZ033-039-045-046-055>057-062-063-240500-
EAST-CENTRAL ILLINOIS

CITY           SKY/WX    TMP DP  RH WIND       PRES   REMARKS
CHAMPAIGN        N/A    N/A N/A N/A MISG      30.30R
$$

ILZ079-100>102-240500-
SOUTHWEST ILLINOIS

CITY           SKY/WX    TMP DP  RH WIND       PRES   REMARKS
BELLEVILLE     PTCLDY    54  54 100 CALM      30.26R
CAHOKIA*       PTCLDY    56  52  86 CALM      30.26R
$$

ILZ064>066-069>071-074>076-080>082-084>086-088>090-092>094-240500-
SOUTH-CENTRAL ILLINOIS

CITY           SKY/WX    TMP DP  RH WIND       PRES   REMARKS
CARBONDALE     CLEAR     51  48  89 CALM      30.25R
$$

ILZ067-068-072-073-078-083-087-091-240500-
SOUTHEAST ILLINOIS

CITY           SKY/WX    TMP DP  RH WIND       PRES   REMARKS
LAWRENCEVILLE  CLEAR     54  49  83 NE5       30.29R
FLORA*         CLEAR     55  48  75 CALM      30.28R
$$

ABBREVIATIONS USED IN REMARKS
   TC - TEMPERATURE IN CELSIUS
  WCI - WIND CHILL INDEX
   HX - HEAT INDEX
  VSB - VISIBILITY
$$



USA.gov is the U.S. government's official web portal to all federal, state and local government web resources and services.